WGS F1 (USA 195)

Last updated on Fri Jul 10 2026 00:03:02 GMT+0000 (Coordinated Universal Time)

1 32258U 07046A 26190.31642144 -.00000254 00000+0 00000+0 0 9990 2 32258 0.0140 73.5639 0000372 193.5437 91.5759 1.00262904 52551
UTC large
Height (km)
Speed (km/s)
/
Latitude / Longitude
Inclination (degrees)
Orbital Period (minutes)
Azimuth
Elevation
Range (km)
Doppler Factor

Next 0 passes for location: London (51.5072 / 0.1276)

No passes found over London.
WGS F1 (USA 195)